FW8535 Weather Reports


time (UTC)temp
F
wind
direction
speed
knots
gust
knots
rain 1hr
in
rain 24hr
in
rain mn
in
humidity
%
barometer
mb
20220930161053 60 53 5.2 10.4 0.00 0.00 0.00 63 935.5
20220930160557 60 50 4.3 9.6 0.00 0.00 0.00 63 935.6
20220930160054 60 39 5.2 11.3 0.00 0.00 0.00 63 935.6
20220930155553 60 57 5.2 11.3 0.00 0.00 0.00 63 935.5
20220930155052 59 40 4.3 11.3 0.00 0.00 0.00 64 935.5
20220930154608 59 47 5.2 11.3 0.00 0.00 0.00 64 935.5
20220930154051 59 27 5.2 11.3 0.00 0.00 0.00 64 935.3
20220930153551 59 18 5.2 9.6 0.00 0.00 0.00 63 935.4
20220930153051 59 47 5.2 11.3 0.00 0.00 0.00 63 935.5
20220930152554 59 38 6.1 10.4 0.00 0.00 0.00 63 935.4
20220930151558 59 51 4.3 9.6 0.00 0.00 0.00 63 935.4
20220930151046 59 55 4.3 9.6 0.00 0.00 0.00 64 935.4
20220930150551 59 42 6.1 9.6 0.00 0.00 0.00 64 935.4
20220930150045 58 51 4.3 9.6 0.00 0.00 0.00 65 935.4
20220930145545 58 59 4.3 8.7 0.00 0.00 0.00 66 935.5
20220930145044 58 30 4.3 9.6 0.00 0.00 0.00 65 935.5
20220930144544 58 63 4.3 9.6 0.00 0.00 0.00 67 935.5
20220930144042 57 49 5.2 8.7 0.00 0.00 0.00 68 935.5
20220930143545 57 51 3.5 8.7 0.00 0.00 0.00 69 935.6
20220930143039 57 38 4.3 8.7 0.00 0.00 0.00 70 935.5
20220930142542 56 37 4.3 10.4 0.00 0.00 0.00 71 935.5
20220930141639 56 37 4.3 8.7 0.00 0.00 0.00 73 935.4
20220930141035 55 29 4.3 7.8 0.00 0.00 0.00 74 935.4
20220930140534 54 34 3.5 7.0 0.00 0.00 0.00 75 935.4
20220930140033 54 36 2.6 7.8 0.00 0.00 0.00 76 935.4
20220930135532 53 46 2.6 7.8 0.00 0.00 0.00 77 935.4
20220930135031 53 52 2.6 6.1 0.00 0.00 0.00 79 935.3
20220930134529 52 34 2.6 7.0 0.00 0.00 0.00 80 935.3
20220930134030 51 36 1.7 4.3 0.00 0.00 0.00 81 935.3
20220930133527 51 43 1.7 4.3 0.00 0.00 0.00 81 935.2
20220930133045 50 50 1.7 3.5 0.00 0.00 0.00 82 935.3
20220930132524 50 59 1.7 3.5 0.00 0.00 0.00 83 935.2
20220930131523 49 67 0.9 2.6 0.00 0.00 0.00 83 935.1
20220930131024 49 67 1.7 2.6 0.00 0.00 0.00 83 935.1
20220930130522 49 67 0.9 2.6 0.00 0.00 0.00 83 935.0
20220930130021 49 67 0.9 2.6 0.00 0.00 0.00 83 935.2
20220930125520 49 67 0.9 2.6 0.00 0.00 0.00 83 935.2
20220930125020 49 67 0.9 2.6 0.00 0.00 0.00 83 935.2
20220930124519 49 67 1.7 2.6 0.00 0.00 0.00 83 935.0
20220930124023 48 67 0.9 2.6 0.00 0.00 0.00 83 935.1
20220930123522 48 67 0.9 2.6 0.00 0.00 0.00 84 934.9
20220930123018 48 67 0.9 2.6 0.00 0.00 0.00 83 935.0
20220930122522 48 67 1.7 2.6 0.00 0.00 0.00 83 935.0
20220930121518 48 67 0.9 1.7 0.00 0.00 0.00 84 935.1
20220930121019 48 67 0.0 0.9 0.00 0.00 0.00 83 934.9
20220930120522 48 67 0.0 1.7 0.00 0.00 0.00 83 935.0
20220930120018 48 67 0.0 0.0 0.00 0.00 0.00 84 935.1
20220930115520 48 67 0.0 1.7 0.00 0.00 0.00 83 934.9
20220930115017 48 67 0.0 1.7 0.00 0.00 0.00 83 934.9
20220930114516 48 67 0.0 1.7 0.00 0.00 0.00 83 934.9
20220930114016 48 67 0.9 1.7 0.00 0.00 0.00 84 934.7
20220930113515 48 67 0.9 1.7 0.00 0.00 0.00 85 934.7
20220930113015 47 67 0.9 1.7 0.00 0.00 0.00 85 934.8
20220930112514 47 67 0.9 1.7 0.00 0.00 0.00 84 934.6
20220930111546 47 67 1.7 2.6 0.00 0.00 0.00 83 934.7
20220930111014 47 67 1.7 2.6 0.00 0.00 0.00 83 934.6
20220930110514 47 67 0.9 2.6 0.00 0.00 0.00 83 934.6
20220930110018 47 67 1.7 2.6 0.00 0.00 0.00 83 934.6
20220930105513 47 67 1.7 2.6 0.00 0.00 0.00 82 934.5
20220930105012 48 67 1.7 2.6 0.00 0.00 0.00 82 934.6
20220930104513 48 67 1.7 2.6 0.00 0.00 0.00 81 934.6
20220930104018 49 67 1.7 2.6 0.00 0.00 0.00 81 934.6
20220930103510 49 67 0.9 2.6 0.00 0.00 0.00 80 934.5
20220930103009 49 67 0.9 2.6 0.00 0.00 0.00 81 934.4
20220930102510 49 67 1.7 2.6 0.00 0.00 0.00 81 934.6
20220930101509 49 67 0.9 1.7 0.00 0.00 0.00 80 934.5
20220930101011 50 67 0.0 1.7 0.00 0.00 0.00 80 934.5
20220930100509 50 67 0.9 2.6 0.00 0.00 0.00 80 934.4
20220930100013 50 67 0.9 2.6 0.00 0.00 0.00 79 934.4
20220930095509 50 67 0.9 2.6 0.00 0.00 0.00 80 934.3
20220930095010 50 67 0.9 2.6 0.00 0.00 0.00 80 934.4
20220930094517 50 67 0.9 1.7 0.00 0.00 0.00 80 934.4
20220930094009 50 67 0.0 1.7 0.00 0.00 0.00 79 934.3
20220930093508 50 67 0.9 1.7 0.00 0.00 0.00 79 934.4
20220930093008 50 67 0.9 1.7 0.00 0.00 0.00 80 934.4
20220930092508 50 67 0.0 0.9 0.00 0.00 0.00 80 934.5
20220930091520 51 67 0.0 0.0 0.00 0.00 0.00 80 934.5
20220930091011 51 67 0.0 0.0 0.00 0.00 0.00 79 934.5
20220930090508 51 67 0.0 0.0 0.00 0.00 0.00 79 934.7
20220930090020 51 67 0.0 0.0 0.00 0.00 0.00 79 934.5
20220930085509 51 67 0.0 0.0 0.00 0.00 0.00 79 934.6
20220930085011 51 67 0.0 0.0 0.00 0.00 0.00 80 934.6
20220930084526 51 67 0.0 0.0 0.00 0.00 0.00 80 934.6
20220930084013 51 67 0.0 0.0 0.00 0.00 0.00 80 934.6
20220930083510 51 67 0.0 0.0 0.00 0.00 0.00 80 934.6
20220930083008 51 67 0.0 0.0 0.00 0.00 0.00 80 934.6
20220930082508 51 67 0.0 0.9 0.00 0.00 0.00 79 934.5
20220930082115 51 67 0.0 0.9 0.00 0.00 0.00 79 934.4
20220930081507 51 67 0.0 0.0 0.00 0.00 0.00 79 934.5
20220930081007 51 67 0.0 0.9 0.00 0.00 0.00 78 934.4
20220930080506 51 67 0.0 1.7 0.00 0.00 0.00 78 934.5
20220930080015 52 67 0.0 1.7 0.00 0.00 0.00 77 934.5
20220930075507 52 67 0.0 2.6 0.00 0.00 0.00 77 934.6
20220930075006 52 67 0.9 2.6 0.00 0.00 0.00 76 934.4
20220930074509 52 67 0.0 2.6 0.00 0.00 0.00 76 934.4
20220930074006 52 67 0.9 2.6 0.00 0.00 0.00 78 934.5
20220930073506 52 67 0.9 1.7 0.00 0.00 0.00 79 934.4
20220930073005 52 67 0.0 0.9 0.00 0.00 0.00 78 934.5
20220930072506 52 67 0.0 1.7 0.00 0.00 0.00 77 934.5
20220930071507 52 67 0.0 1.7 0.00 0.00 0.00 77 934.5
20220930071007 52 67 0.9 1.7 0.00 0.00 0.00 76 934.4
20220930070506 53 67 0.0 1.7 0.00 0.00 0.00 75 934.5
20220930070006 53 67 0.0 1.7 0.00 0.00 0.00 76 934.5
20220930065506 53 67 0.9 2.6 0.00 0.00 0.00 75 934.5
20220930065006 53 67 0.9 1.7 0.00 0.00 0.00 75 934.4
20220930064531 53 67 0.0 2.6 0.00 0.00 0.00 74 934.5
20220930064006 54 67 0.9 2.6 0.00 0.00 0.00 74 934.4
20220930063506 54 67 0.9 2.6 0.00 0.00 0.00 72 934.5
20220930063008 55 67 0.9 2.6 0.00 0.00 0.00 72 934.5
20220930062505 55 67 0.9 2.6 0.00 0.00 0.00 72 934.5
20220930061508 56 67 0.9 2.6 0.00 0.00 0.00 71 934.5
20220930061004 56 67 0.9 2.6 0.00 0.00 0.00 70 934.5
20220930060504 57 67 0.0 2.6 0.00 0.00 0.00 70 934.4
20220930060005 57 67 0.9 2.6 0.00 0.00 0.00 71 934.4
20220930055509 57 67 1.7 2.6 0.00 0.00 0.00 70 934.4
20220930055004 57 67 0.9 1.7 0.00 0.00 0.00 70 934.6
20220930054504 57 67 0.0 2.6 0.00 0.00 0.00 69 934.5
20220930054004 57 67 1.7 2.6 0.00 0.00 0.00 70 934.4
20220930053505 56 67 0.0 0.0 0.00 0.00 0.00 71 934.6
20220930053004 56 67 0.0 1.7 0.00 0.00 0.00 71 934.5
20220930052504 56 67 0.0 1.7 0.00 0.00 0.00 70 934.6
20220930051503 56 67 0.0 1.7 0.00 0.00 0.00 70 934.5
20220930051003 56 67 0.0 1.7 0.00 0.00 0.00 70 934.2
20220930050002 57 67 0.9 2.6 0.00 0.00 0.00 68 934.4
20220930045502 57 67 0.0 2.6 0.00 0.00 0.00 68 934.3
20220930045006 57 67 0.9 2.6 0.00 0.00 0.00 69 934.3
20220930044502 57 67 0.0 1.7 0.00 0.00 0.00 67 934.3
20220930044002 57 67 0.0 1.7 0.00 0.00 0.00 67 934.3
20220930043502 57 67 0.0 0.9 0.00 0.00 0.00 67 934.3
20220930043003 58 67 0.0 0.9 0.00 0.00 0.00 66 934.3
20220930042501 58 67 0.0 1.7 0.00 0.00 0.00 65 934.3
20220930041509 58 67 0.9 1.7 0.00 0.00 0.00 65 934.2
20220930041002 58 67 0.0 1.7 0.00 0.00 0.00 64 934.2
20220930040501 58 67 0.0 1.7 0.00 0.00 0.00 63 934.2
20220930040004 59 67 0.9 1.7 0.00 0.00 0.00 63 934.3
20220930035501 59 67 0.9 1.7 0.00 0.00 0.00 62 934.2
20220930035001 59 67 0.0 2.6 0.00 0.00 0.00 60 934.2
20220930034503 60 67 0.9 2.6 0.00 0.00 0.00 59 934.1
20220930034104 60 67 1.7 2.6 0.00 0.00 0.00 58 934.2
20220930034003 60 67 1.7 2.6 0.00 0.00 0.00 58 934.2
20220930033609 61 67 0.9 2.6 0.00 0.00 0.00 57 934.2
20220930033108 61 67 0.9 2.6 0.00 0.00 0.00 56 934.1
20220930032600 62 67 0.9 2.6 0.00 0.00 0.00 55 934.0
20220930032502 62 67 0.9 2.6 0.00 0.00 0.00 55 934.1
20220930032200 62 67 0.9 2.6 0.00 0.00 0.00 54 934.0
20220930031500 62 67 0.9 2.6 0.00 0.00 0.00 54 934.1
20220930031002 62 67 0.9 2.6 0.00 0.00 0.00 53 934.1
20220930030500 63 67 0.9 2.6 0.00 0.00 0.00 51 934.0
20220930030144 64 67 1.7 2.6 0.00 0.00 0.00 50 934.0
20220930025601 64 67 1.7 2.6 0.00 0.00 0.00 50 934.0
20220930025100 65 67 1.7 2.6 0.00 0.00 0.00 49 934.0
20220930024600 65 67 1.7 2.6 0.00 0.00 0.00 48 933.9
20220930024100 65 67 1.7 2.6 0.00 0.00 0.00 47 933.9
20220930023605 66 67 0.9 2.6 0.00 0.00 0.00 46 933.9
20220930023112 66 67 0.9 2.6 0.00 0.00 0.00 46 933.9
20220930022600 66 67 1.7 2.6 0.00 0.00 0.00 46 933.7
20220930022159 66 67 1.7 2.6 0.00 0.00 0.00 46 933.8
20220930021601 66 67 0.9 2.6 0.00 0.00 0.00 46 933.8
20220930021107 66 67 0.9 1.7 0.00 0.00 0.00 46 933.8
20220930020602 66 67 0.0 1.7 0.00 0.00 0.00 45 933.7
20220930020114 66 67 0.0 1.7 0.00 0.00 0.00 45 933.6
20220930015559 67 67 0.9 1.7 0.00 0.00 0.00 44 933.6
20220930015059 67 67 0.9 1.7 0.00 0.00 0.00 44 933.5
20220930014600 67 67 0.9 2.6 0.00 0.00 0.00 43 933.4
20220930014502 67 67 0.9 2.6 0.00 0.00 0.00 43 933.5
20220930014059 68 67 0.9 2.6 0.00 0.00 0.00 42 933.3
20220930013600 68 67 0.9 3.5 0.00 0.00 0.00 41 933.3
20220930013104 68 67 1.7 3.5 0.00 0.00 0.00 41 933.2
20220930012602 68 69 1.7 3.5 0.00 0.00 0.00 41 933.2
20220930012200 70 70 0.9 2.6 0.00 0.00 0.00 39 933.3
20220930011600 70 70 0.9 2.6 0.00 0.00 0.00 39 933.1
20220930011059 71 70 0.9 3.5 0.00 0.00 0.00 37 933.1
20220930010556 72 70 1.7 3.5 0.00 0.00 0.00 36 932.9
20220930010057 73 70 0.9 2.6 0.00 0.00 0.00 35 932.8
20220930005559 73 70 0.0 1.7 0.00 0.00 0.00 35 932.8
20220930005057 74 70 0.0 1.7 0.00 0.00 0.00 34 932.9
20220930004601 74 70 0.9 2.6 0.00 0.00 0.00 34 932.9
20220930004056 74 70 0.9 3.5 0.00 0.00 0.00 34 932.8
20220930003556 75 70 0.9 3.5 0.00 0.00 0.00 34 932.8
20220930003106 75 72 0.9 3.5 0.00 0.00 0.00 33 932.7
20220930002556 75 72 1.7 3.5 0.00 0.00 0.00 33 932.9
20220930002100 76 73 0.9 3.5 0.00 0.00 0.00 34 932.8
20220930001558 76 73 1.7 3.5 0.00 0.00 0.00 34 932.7
20220930001108 76 74 0.9 2.6 0.00 0.00 0.00 34 932.8
20220930000557 77 76 0.0 1.7 0.00 0.00 0.00 34 932.8
20220930000107 78 76 0.0 1.7 0.00 0.00 0.00 35 932.7
20220929235556 78 76 0.0 2.6 0.00 0.00 0.00 33 932.8
20220929235056 79 76 0.9 2.6 0.00 0.00 0.00 32 932.7
20220929234556 79 76 0.9 3.5 0.00 0.00 0.00 32 932.8
20220929234056 80 76 0.9 3.5 0.00 0.00 0.00 32 932.7
20220929233559 80 107 0.0 1.7 0.00 0.00 0.00 32 932.8
20220929233056 80 107 0.0 2.6 0.00 0.00 0.00 32 932.7
20220929232555 80 107 0.0 2.6 0.00 0.00 0.00 32 932.7
20220929232159 81 107 0.9 3.5 0.00 0.00 0.00 31 932.6
20220929231610 81 107 0.9 3.5 0.00 0.00 0.00 31 932.8
20220929231054 81 107 0.9 6.1 0.00 0.00 0.00 30 932.8
20220929230554 82 107 1.7 6.1 0.00 0.00 0.00 30 932.8
20220929230054 82 104 1.7 5.2 0.00 0.00 0.00 30 932.9
20220929225554 82 111 1.7 6.1 0.00 0.00 0.00 30 932.9
20220929225054 83 99 1.7 7.0 0.00 0.00 0.00 30 932.9
20220929224603 83 104 1.7 7.0 0.00 0.00 0.00 29 932.8
20220929224057 83 102 2.6 6.1 0.00 0.00 0.00 29 932.8
20220929223552 84 107 1.7 6.1 0.00 0.00 0.00 29 932.9
20220929223100 84 101 2.6 6.1 0.00 0.00 0.00 28 932.7
20220929222553 85 86 1.7 8.7 0.00 0.00 0.00 28 932.8
20220929222152 85 73 0.9 6.1 0.00 0.00 0.00 28 932.8
20220929221552 85 49 0.9 6.1 0.00 0.00 0.00 28 932.9
20220929221053 85 98 1.7 7.8 0.00 0.00 0.00 28 932.8
20220929220551 85 86 3.5 8.7 0.00 0.00 0.00 27 932.9
20220929220104 85 101 2.6 8.7 0.00 0.00 0.00 27 932.9
20220929215551 85 104 2.6 9.6 0.00 0.00 0.00 27 932.9
20220929215050 85 97 1.7 7.0 0.00 0.00 0.00 28 933.0
20220929214621 85 100 2.6 7.0 0.00 0.00 0.00 28 933.0
20220929214049 85 113 2.6 7.0 0.00 0.00 0.00 28 933.0
20220929213549 85 90 1.7 7.8 0.00 0.00 0.00 28 933.1
20220929213048 85 56 4.3 7.8 0.00 0.00 0.00 28 933.2
20220929212549 85 63 1.7 7.8 0.00 0.00 0.00 29 932.9
20220929212149 85 51 2.6 7.8 0.00 0.00 0.00 29 933.1
20220929211602 85 30 2.6 8.7 0.00 0.00 0.00 29 933.1
20220929211049 84 50 3.5 8.7 0.00 0.00 0.00 30 933.0
20220929210549 84 37 3.5 9.6 0.00 0.00 0.00 30 932.8
20220929210048 85 46 4.3 9.6 0.00 0.00 0.00 30 933.0
20220929205550 85 92 2.6 7.8 0.00 0.00 0.00 31 933.0
20220929205047 85 85 1.7 6.1 0.00 0.00 0.00 31 932.8
20220929204552 85 54 2.6 6.1 0.00 0.00 0.00 29 933.0
20220929204046 85 95 1.7 4.3 0.00 0.00 0.00 31 933.0
20220929203549 84 77 1.7 7.0 0.00 0.00 0.00 33 933.1
20220929203051 83 74 3.5 8.7 0.00 0.00 0.00 33 933.1
20220929202545 83 57 3.5 8.7 0.00 0.00 0.00 34 933.2
20220929201551 82 52 1.7 6.1 0.00 0.00 0.00 35 933.2
20220929201040 82 106 1.7 6.1 0.00 0.00 0.00 36 933.3
20220929200538 81 54 2.6 5.2 0.00 0.00 0.00 36 933.4
20220929200046 81 47 1.7 5.2 0.00 0.00 0.00 36 933.5
20220929195537 81 41 1.7 6.1 0.00 0.00 0.00 36 933.4
20220929195035 81 53 1.7 6.1 0.00 0.00 0.00 36 933.6
20220929194538 81 44 1.7 6.1 0.00 0.00 0.00 37 933.6
20220929194034 80 45 2.6 6.1 0.00 0.00 0.00 36 933.7
20220929193535 80 44 1.7 4.3 0.00 0.00 0.00 37 933.8
20220929193038 80 49 0.9 4.3 0.00 0.00 0.00 38 933.9
20220929192537 79 104 0.9 5.2 0.00 0.00 0.00 38 934.0
20220929192131 79 47 1.7 7.0 0.00 0.00 0.00 38 934.0
20220929191537 79 51 1.7 7.0 0.00 0.00 0.00 38 934.0
20220929191031 79 32 2.6 7.0 0.00 0.00 0.00 38 934.1
20220929190531 79 49 2.6 5.2 0.00 0.00 0.00 38 934.0
20220929190031 79 79 1.7 6.1 0.00 0.00 0.00 38 934.1
20220929185530 79 38 2.6 6.1 0.00 0.00 0.00 39 934.2
20220929185031 79 51 2.6 6.1 0.00 0.00 0.00 38 934.3
20220929184529 79 101 0.9 5.2 0.00 0.00 0.00 39 934.2
20220929184030 78 100 2.6 7.8 0.00 0.00 0.00 40 934.3
20220929183526 77 64 1.7 7.8 0.00 0.00 0.00 40 934.4
20220929183026 77 101 0.9 6.1 0.00 0.00 0.00 40 934.4
20220929182527 77 47 2.6 7.8 0.00 0.00 0.00 41 934.3
20220929182124 76 98 2.6 7.0 0.00 0.00 0.00 41 934.3
20220929181537 76 101 2.6 7.0 0.00 0.00 0.00 41 934.3
20220929181022 76 53 2.6 6.1 0.00 0.00 0.00 41 934.5
20220929180521 76 55 1.7 3.5 0.00 0.00 0.00 41 934.5
20220929180019 75 56 0.9 4.3 0.00 0.00 0.00 42 934.6
20220929175518 74 74 0.9 5.2 0.00 0.00 0.00 43 934.7
20220929175017 73 40 2.6 5.2 0.00 0.00 0.00 44 934.6
20220929174518 73 41 2.6 5.2 0.00 0.00 0.00 44 934.7
20220929174015 72 26 2.6 5.2 0.00 0.00 0.00 45 934.6
20220929173522 72 42 1.7 5.2 0.00 0.00 0.00 47 934.7
20220929173014 71 42 1.7 5.2 0.00 0.00 0.00 48 934.8
20220929172514 71 51 2.6 6.1 0.00 0.00 0.00 47 934.9
20220929172116 70 49 2.6 7.0 0.00 0.00 0.00 47 934.8
20220929171509 70 61 2.6 7.0 0.00 0.00 0.00 49 934.8
20220929171008 70 38 2.6 7.0 0.00 0.00 0.00 48 934.9
20220929170507 69 34 1.7 7.0 0.00 0.00 0.00 49 934.9
20220929170014 68 36 2.6 7.0 0.00 0.00 0.00 49 935.0
20220929165507 68 50 1.7 5.2 0.00 0.00 0.00 51 934.9
20220929165002 67 49 1.7 4.3 0.00 0.00 0.00 52 935.0
20220929164502 67 37 1.7 4.3 0.00 0.00 0.00 53 934.9
20220929164005 66 24 0.9 3.5 0.00 0.00 0.00 53 934.9
20220929163601 66 10 1.7 3.5 0.00 0.00 0.00 53 935.1
20220929163058 65 63 0.9 3.5 0.00 0.00 0.00 55 935.0
20220929162556 65 63 0.9 2.6 0.00 0.00 0.00 55 935.2
20220929162055 64 63 0.9 3.5 0.00 0.00 0.00 56 935.2